CW0069 Weather Reports


Display with metric or nautical units.
time (UTC)temp
F
wind
direction
speed
MPH
gust
MPH
rain 1hr
in
rain 24hr
in
rain mn
in
humidity
%
barometer
mb
20260509053404 71 14 2.0 3.0 0.00 0.00 0.00 61 1009.4
20260509052904 71 358 3.0 3.0 0.00 0.00 0.00 61 1009.3
20260509052404 71 154 1.0 2.0 0.00 0.00 0.00 61 1008.7
20260509051904 71 150 3.0 7.0 0.00 0.00 0.00 61 1008.3
20260509050904 71 165 1.0 6.0 0.00 0.00 0.00 61 1008.5
20260509050405 71 152 4.0 9.0 0.00 0.00 0.00 61 1008.1
20260509045904 71 159 5.0 7.0 0.00 0.00 0.00 61 1008.0
20260509045404 71 178 3.0 8.0 0.00 0.00 0.00 60 1008.0
20260509044904 72 160 4.0 8.0 0.00 0.00 0.00 60 1007.7
20260509044404 72 146 5.0 8.0 0.00 0.00 0.00 60 1007.6
20260509043904 72 131 5.0 7.0 0.00 0.00 0.00 60 1007.9
20260509043404 72 117 2.0 3.0 0.00 0.00 0.00 60 1008.3
20260509042905 72 128 2.0 3.0 0.00 0.00 0.00 60 1008.3
20260509042404 72 127 1.0 3.0 0.00 0.00 0.00 60 1008.6
20260509041904 72 127 0.0 0.0 0.00 0.00 0.00 60 1008.9
20260509041404 72 127 0.0 0.0 0.00 0.00 0.00 60 1008.9
20260509040905 72 127 0.0 0.0 0.00 0.00 0.00 59 1009.0
20260509040404 72 127 0.0 0.0 0.00 0.00 0.00 60 1008.9
20260509034904 72 127 1.0 3.0 0.00 0.00 0.00 60 1008.7
20260509033904 72 126 1.0 3.0 0.00 0.00 0.00 59 1008.4
20260509033404 72 126 1.0 3.0 0.00 0.00 0.00 59 1008.3
20260509032904 72 126 1.0 2.0 0.00 0.00 0.00 59 1008.3
20260509031904 72 126 2.0 3.0 0.00 0.00 0.00 58 1008.2
20260509031404 72 125 2.0 5.0 0.00 0.00 0.00 58 1008.2
20260509030904 72 143 2.0 5.0 0.00 0.00 0.00 58 1008.1
20260509025904 72 130 2.0 3.0 0.00 0.00 0.00 58 1007.9
20260509025404 72 130 1.0 3.0 0.00 0.00 0.00 58 1007.9
20260509024904 72 130 1.0 3.0 0.00 0.00 0.00 58 1007.9
20260509024404 72 130 2.0 3.0 0.00 0.00 0.00 58 1007.8
20260509023905 72 130 1.0 3.0 0.00 0.00 0.00 58 1007.6
20260509023404 72 130 1.0 3.0 0.00 0.00 0.00 58 1007.5
20260509022404 72 139 3.0 5.0 0.00 0.00 0.00 58 1007.4
20260509021904 72 130 2.0 5.0 0.00 0.00 0.00 58 1007.3
20260509021404 72 130 2.0 3.0 0.00 0.00 0.00 58 1007.3
20260509020904 72 130 3.0 7.0 0.00 0.00 0.00 58 1007.5
20260509020404 72 144 3.0 5.0 0.00 0.00 0.00 57 1007.4
20260509015405 72 144 2.0 5.0 0.00 0.00 0.00 57 1007.4
20260509014904 73 144 3.0 3.0 0.00 0.00 0.00 57 1007.4
20260509014404 73 146 2.0 5.0 0.00 0.00 0.00 57 1007.3
20260509013904 73 146 2.0 3.0 0.00 0.00 0.00 57 1007.3
20260509012904 73 144 2.0 3.0 0.00 0.00 0.00 57 1007.2
20260509012404 73 144 2.0 3.0 0.00 0.00 0.00 56 1007.1
20260509011906 73 144 0.0 0.0 0.00 0.00 0.00 56 1007.1
20260509010905 73 144 1.0 3.0 0.00 0.00 0.00 55 1006.8
20260509004405 74 142 3.0 6.0 0.00 0.00 0.00 56 1006.5
20260509003904 74 153 3.0 7.0 0.00 0.00 0.00 55 1006.5
20260509003405 74 150 5.0 8.0 0.00 0.00 0.00 55 1006.5
20260509002404 74 143 4.0 9.0 0.00 0.00 0.00 55 1006.5
20260509001904 74 151 4.0 9.0 0.00 0.00 0.00 55 1006.6
20260509000904 74 144 2.0 5.0 0.00 0.00 0.00 54 1006.8
20260508235904 74 152 3.0 5.0 0.00 0.00 0.00 54 1006.9
20260508235404 74 145 3.0 6.0 0.00 0.00 0.00 54 1007.0
20260508234904 74 124 1.0 3.0 0.00 0.00 0.00 54 1007.1
20260508234404 74 124 5.0 10.0 0.00 0.00 0.00 54 1007.0
20260508233904 74 121 2.0 3.0 0.00 0.00 0.00 54 1007.1
20260508232904 74 82 2.0 6.0 0.00 0.00 0.00 53 1007.1
20260508232404 74 119 2.0 3.0 0.00 0.00 0.00 53 1007.0
20260508231905 74 136 3.0 5.0 0.00 0.00 0.00 53 1007.0
20260508231404 74 133 2.0 3.0 0.00 0.00 0.00 53 1007.1
20260508230904 74 133 3.0 5.0 0.00 0.00 0.00 53 1007.2
20260508225904 74 169 3.0 7.0 0.00 0.00 0.00 52 1007.2
20260508225404 75 142 3.0 6.0 0.00 0.00 0.00 52 1007.3
20260508224905 75 173 6.0 9.0 0.00 0.00 0.00 52 1007.2
20260508223904 75 148 6.0 10.0 0.00 0.00 0.00 51 1007.3
20260508223404 75 155 7.0 12.0 0.00 0.00 0.00 51 1007.2
20260508222904 75 172 8.0 12.0 0.00 0.00 0.00 51 1007.3
20260508222404 75 149 7.0 13.0 0.00 0.00 0.00 52 1007.3
20260508221904 75 160 9.0 12.0 0.00 0.00 0.00 53 1007.2
20260508221404 75 166 6.0 12.0 0.00 0.00 0.00 53 1007.2
20260508220904 75 180 5.0 10.0 0.00 0.00 0.00 53 1007.2
20260508220404 75 165 5.0 8.0 0.00 0.00 0.00 54 1007.1
20260508215904 74 165 6.0 8.0 0.00 0.00 0.00 54 1007.1
20260508215405 74 171 5.0 9.0 0.00 0.00 0.00 54 1007.0
20260508214904 74 126 4.0 9.0 0.00 0.00 0.00 55 1006.9
20260508214404 74 139 4.0 7.0 0.00 0.00 0.00 55 1007.0
20260508213904 74 163 2.0 5.0 0.00 0.00 0.00 56 1006.9
20260508213404 74 164 2.0 9.0 0.00 0.00 0.00 56 1006.9
20260508212904 73 190 2.0 9.0 0.00 0.00 0.00 55 1006.9
20260508212404 74 8 4.0 10.0 0.00 0.00 0.00 54 1006.6
20260508211904 74 124 7.0 13.0 0.00 0.00 0.00 53 1006.5
20260508211404 75 144 6.0 12.0 0.00 0.00 0.00 53 1007.6
20260508210904 75 187 5.0 10.0 0.00 0.00 0.00 52 1008.7
20260508210403 75 205 4.0 8.0 0.00 0.00 0.00 51 1008.3
20260508205904 75 175 6.0 10.0 0.00 0.00 0.00 50 1008.3
20260508205404 76 177 7.0 10.0 0.00 0.00 0.00 50 1008.8
20260508204904 76 179 7.0 12.0 0.00 0.00 0.00 49 1008.9
20260508204404 77 190 5.0 12.0 0.00 0.00 0.00 49 1009.0
20260508203904 77 188 5.0 12.0 0.00 0.00 0.00 49 1009.0
20260508203404 77 214 4.0 8.0 0.00 0.00 0.00 48 1009.0
20260508202904 77 191 3.0 7.0 0.00 0.00 0.00 48 1008.8
20260508201904 78 175 6.0 12.0 0.00 0.00 0.00 49 1008.7
20260508201404 78 169 5.0 8.0 0.00 0.00 0.00 48 1008.8
20260508200905 78 131 3.0 8.0 0.00 0.00 0.00 48 1008.8
20260508200404 78 109 6.0 10.0 0.00 0.00 0.00 48 1008.7
20260508195904 78 138 4.0 9.0 0.00 0.00 0.00 47 1008.7
20260508195404 78 167 6.0 9.0 0.00 0.00 0.00 48 1008.8
20260508194904 78 144 5.0 10.0 0.00 0.00 0.00 47 1008.9
20260508193905 78 138 7.0 10.0 0.00 0.00 0.00 47 1009.0
20260508193405 78 157 4.0 8.0 0.00 0.00 0.00 47 1008.9
20260508191904 79 163 5.0 12.0 0.00 0.00 0.00 47 1009.2
20260508191404 79 146 6.0 12.0 0.00 0.00 0.00 48 1009.3
20260508190904 79 154 4.0 12.0 0.00 0.00 0.00 47 1009.4
20260508190404 79 129 8.0 12.0 0.00 0.00 0.00 46 1009.4
20260508185904 79 168 8.0 12.0 0.00 0.00 0.00 47 1009.4
20260508184905 79 148 7.0 12.0 0.00 0.00 0.00 46 1009.5
20260508184405 79 159 7.0 12.0 0.00 0.00 0.00 45 1009.5
20260508183904 79 153 6.0 10.0 0.00 0.00 0.00 46 1009.5
20260508183404 79 172 6.0 12.0 0.00 0.00 0.00 48 1009.6
20260508182905 78 165 5.0 12.0 0.00 0.00 0.00 47 1009.6
20260508182404 78 171 5.0 10.0 0.00 0.00 0.00 47 1009.7
20260508181904 77 172 5.0 8.0 0.00 0.00 0.00 48 1009.8
20260508181404 77 133 6.0 12.0 0.00 0.00 0.00 49 1009.9
20260508180913 77 163 6.0 10.0 0.00 0.00 0.00 48 1010.0
20260508180405 76 94 1.0 6.0 0.00 0.00 0.00 48 1010.1
20260508175905 77 128 3.0 8.0 0.00 0.00 0.00 49 1010.2
20260508175404 76 107 6.0 10.0 0.00 0.00 0.00 48 1010.3
20260508174404 76 97 4.0 10.0 0.00 0.00 0.00 48 1010.5
20260508173905 76 149 4.0 8.0 0.00 0.00 0.00 48 1010.6
20260508173404 75 160 5.0 10.0 0.00 0.00 0.00 49 1010.7
20260508172904 75 147 5.0 9.0 0.00 0.00 0.00 47 1010.6
20260508172404 75 171 3.0 9.0 0.00 0.00 0.00 47 1010.8
20260508171904 75 93 3.0 9.0 0.00 0.00 0.00 48 1010.8
20260508171404 75 103 5.0 12.0 0.00 0.00 0.00 49 1010.9
20260508170903 75 113 5.0 8.0 0.00 0.00 0.00 50 1011.1
20260508170404 74 89 2.0 9.0 0.00 0.00 0.00 49 1011.3
20260508165904 74 122 4.0 9.0 0.00 0.00 0.00 50 1011.5
20260508165404 74 99 5.0 8.0 0.00 0.00 0.00 50 1011.7
20260508164904 74 111 6.0 10.0 0.00 0.00 0.00 50 1011.8
20260508164404 73 99 3.0 8.0 0.00 0.00 0.00 49 1011.8
20260508163904 73 102 3.0 9.0 0.00 0.00 0.00 50 1011.9
20260508163404 73 117 6.0 10.0 0.00 0.00 0.00 50 1012.0
20260508162904 73 118 6.0 12.0 0.00 0.00 0.00 50 1012.1
20260508162404 73 109 5.0 12.0 0.00 0.00 0.00 51 1012.2
20260508161904 73 168 6.0 12.0 0.00 0.00 0.00 50 1012.3
20260508160904 72 130 5.0 10.0 0.00 0.00 0.00 51 1012.2
20260508160404 71 134 4.0 9.0 0.00 0.00 0.00 52 1012.3
20260508153403 71 150 6.0 9.0 0.00 0.00 0.00 51 1012.8
20260508152904 71 157 6.0 10.0 0.00 0.00 0.00 51 1012.8
20260508152404 71 140 5.0 9.0 0.00 0.00 0.00 51 1012.8
20260508151904 71 145 3.0 10.0 0.00 0.00 0.00 51 1012.8
20260508151404 71 158 6.0 12.0 0.00 0.00 0.00 50 1012.8
20260508150904 71 143 4.0 8.0 0.00 0.00 0.00 51 1012.8
20260508150404 70 143 5.0 10.0 0.00 0.00 0.00 52 1012.8
20260508145905 70 121 5.0 9.0 0.00 0.00 0.00 51 1012.8
20260508145403 70 129 4.0 9.0 0.00 0.00 0.00 51 1012.7
20260508144904 70 135 6.0 9.0 0.00 0.00 0.00 51 1012.6
20260508144404 70 137 3.0 9.0 0.00 0.00 0.00 51 1012.5
20260508142904 69 108 2.0 12.0 0.00 0.00 0.00 52 1012.7
20260508141904 68 108 5.0 10.0 0.00 0.00 0.00 54 1012.9
20260508140904 67 121 6.0 10.0 0.00 0.00 0.00 55 1013.0
20260508140404 67 105 4.0 10.0 0.00 0.00 0.00 54 1013.1
20260508135904 66 130 5.0 9.0 0.00 0.00 0.00 56 1013.2
20260508135404 66 114 6.0 12.0 0.00 0.00 0.00 57 1013.0
20260508134904 65 101 6.0 10.0 0.00 0.00 0.00 57 1013.0
20260508133904 64 110 4.0 10.0 0.00 0.00 0.00 58 1013.1
20260508133404 64 102 5.0 8.0 0.00 0.00 0.00 59 1013.0
20260508132904 63 103 3.0 6.0 0.00 0.00 0.00 60 1013.0
20260508132404 63 90 4.0 8.0 0.00 0.00 0.00 62 1013.1
20260508131904 62 125 3.0 6.0 0.00 0.00 0.00 62 1013.2
20260508131404 62 76 2.0 3.0 0.00 0.00 0.00 64 1013.3
20260508130904 61 63 3.0 5.0 0.00 0.00 0.00 65 1013.4
20260508130403 61 69 2.0 3.0 0.00 0.00 0.00 65 1013.4
20260508125904 60 67 1.0 3.0 0.00 0.00 0.00 65 1013.4
20260508125404 60 67 2.0 3.0 0.00 0.00 0.00 65 1013.4
20260508124904 60 71 1.0 3.0 0.00 0.00 0.00 65 1013.2
20260508124404 60 71 1.0 3.0 0.00 0.00 0.00 65 1013.2
20260508123903 60 72 2.0 3.0 0.00 0.00 0.00 65 1013.1
20260508123404 60 76 2.0 3.0 0.00 0.00 0.00 65 1012.9
20260508122904 60 76 2.0 3.0 0.00 0.00 0.00 66 1013.0
20260508122404 60 76 1.0 2.0 0.00 0.00 0.00 66 1013.1
20260508121903 60 76 0.0 3.0 0.00 0.00 0.00 66 1013.3
20260508121404 60 76 2.0 3.0 0.00 0.00 0.00 66 1013.3
20260508120903 60 76 1.0 2.0 0.00 0.00 0.00 66 1013.3
20260508120404 60 76 1.0 3.0 0.00 0.00 0.00 66 1013.2
20260508115904 60 76 1.0 3.0 0.00 0.00 0.00 66 1013.3
20260508115404 60 76 0.0 1.0 0.00 0.00 0.00 66 1013.4
20260508114904 60 76 1.0 3.0 0.00 0.00 0.00 65 1013.4
20260508114404 60 76 1.0 2.0 0.00 0.00 0.00 66 1013.4
20260508113904 59 76 1.0 3.0 0.00 0.00 0.00 66 1013.5
20260508112904 59 319 0.0 0.0 0.00 0.00 0.00 65 1013.8
20260508112404 59 319 1.0 3.0 0.00 0.00 0.00 65 1013.9
20260508111904 59 319 2.0 5.0 0.00 0.00 0.00 65 1014.1
20260508110404 59 230 1.0 2.0 0.00 0.00 0.00 65 1013.5
20260508105403 59 227 3.0 3.0 0.00 0.00 0.00 65 1013.2
20260508104904 59 120 0.0 2.0 0.00 0.00 0.00 65 1012.8
20260508104404 59 120 0.0 3.0 0.00 0.00 0.00 65 1012.6
20260508103904 59 119 2.0 3.0 0.00 0.00 0.00 65 1012.3
20260508103404 59 122 3.0 3.0 0.00 0.00 0.00 65 1012.2
20260508102903 59 121 2.0 3.0 0.00 0.00 0.00 65 1012.3
20260508102404 59 121 2.0 3.0 0.00 0.00 0.00 65 1012.3
20260508101904 59 121 1.0 2.0 0.00 0.00 0.00 65 1012.3
20260508101404 59 121 1.0 2.0 0.00 0.00 0.00 65 1012.6
20260508100904 59 121 1.0 3.0 0.00 0.00 0.00 65 1012.5
20260508095904 60 121 1.0 2.0 0.00 0.00 0.00 65 1012.5
20260508094904 60 121 0.0 3.0 0.00 0.00 0.00 65 1012.5
20260508094403 60 121 1.0 3.0 0.00 0.00 0.00 65 1012.3
20260508093904 60 121 0.0 2.0 0.00 0.00 0.00 65 1012.6
20260508093404 60 121 2.0 3.0 0.00 0.00 0.00 65 1012.5
20260508092904 60 121 1.0 2.0 0.00 0.00 0.00 65 1012.5
20260508092403 60 121 2.0 3.0 0.00 0.00 0.00 65 1012.5
20260508091903 60 121 1.0 5.0 0.00 0.00 0.00 65 1012.6
20260508091404 60 133 2.0 5.0 0.00 0.00 0.00 65 1012.4
20260508090904 60 113 3.0 6.0 0.00 0.00 0.00 65 1012.4
20260508090404 60 97 2.0 6.0 0.00 0.00 0.00 65 1012.5
20260508085904 60 156 2.0 3.0 0.00 0.00 0.00 65 1012.7
20260508085403 60 157 2.0 3.0 0.00 0.00 0.00 65 1013.1
20260508084404 60 192 0.0 3.0 0.00 0.00 0.00 64 1013.6
20260508083904 60 192 1.0 2.0 0.00 0.00 0.00 64 1013.6
20260508083403 60 192 0.0 0.0 0.00 0.00 0.00 64 1013.6
20260508082903 60 192 0.0 0.0 0.00 0.00 0.00 64 1013.9
20260508082404 60 192 0.0 0.0 0.00 0.00 0.00 64 1013.9
20260508080904 60 192 2.0 3.0 0.00 0.00 0.00 64 1014.0
20260508080404 60 155 1.0 3.0 0.00 0.00 0.00 63 1014.0
20260508075904 60 122 0.0 0.0 0.00 0.00 0.00 63 1013.6
20260508075404 60 122 0.0 0.0 0.00 0.00 0.00 63 1013.5
20260508074904 60 122 0.0 0.0 0.00 0.00 0.00 63 1013.6
20260508073904 60 122 0.0 0.0 0.00 0.00 0.00 63 1013.4
20260508072904 60 122 0.0 0.0 0.00 0.00 0.00 63 1013.4
20260508072404 60 122 0.0 0.0 0.00 0.00 0.00 63 1013.3
20260508071904 60 122 0.0 0.0 0.00 0.00 0.00 63 1013.4
20260508070903 60 122 1.0 2.0 0.00 0.00 0.00 62 1013.5
20260508070404 60 122 1.0 2.0 0.00 0.00 0.00 63 1013.7
20260508065404 60 122 0.0 2.0 0.00 0.00 0.00 62 1013.8
20260508064404 60 122 0.0 0.0 0.00 0.00 0.00 61 1014.2
20260508063904 60 122 0.0 0.0 0.00 0.00 0.00 61 1014.3
20260508063404 60 122 0.0 0.0 0.00 0.00 0.00 61 1014.3
20260508062903 60 122 0.0 0.0 0.00 0.00 0.00 61 1014.3
20260508062403 60 122 1.0 3.0 0.00 0.00 0.00 61 1014.1
20260508061904 60 122 1.0 2.0 0.00 0.00 0.00 62 1014.2
20260508061404 61 122 0.0 0.0 0.00 0.00 0.00 62 1014.3
20260508060904 61 122 0.0 0.0 0.00 0.00 0.00 61 1014.2
20260508060404 61 122 0.0 1.0 0.00 0.00 0.00 61 1014.3
20260508055903 61 122 1.0 2.0 0.00 0.00 0.00 61 1014.1
20260508055403 61 122 0.0 0.0 0.00 0.00 0.00 61 1014.2
20260508054904 61 122 0.0 0.0 0.00 0.00 0.00 61 1014.3
20260508054404 61 122 0.0 0.0 0.00 0.00 0.00 61 1014.2
20260508053903 61 122 0.0 2.0 0.00 0.00 0.00 62 1014.1